Bloomington, IL

11:54 AM CDT on April 25, 2018 (GMT -0500)
Central Ill Regional

Weather History for KBMI - July, 2013

Change the Weather History Date:

Wednesday, July 10, 2013

  Actual Average Record
Temperature  
Mean Temperature 78 °F -  
Max Temperature 88 °F 91 °F 96 °F (1976)
Min Temperature 68 °F 62 °F 53 °F (1977)
Cooling Degree Days 13    
Growing Degree Days 28 (Base 50)    
Moisture  
Dew Point 70 °F    
Average Humidity 80    
Maximum Humidity 100    
Minimum Humidity 49    
Precipitation  
Precipitation 0.94 in - - ()
Sea Level Pressure  
Sea Level Pressure 29.91 in    
Wind  
Wind Speed 11 mph (WSW)    
Max Wind Speed 20 mph    
Max Gust Speed 26 mph    
Visibility 8 miles    
Events Fog , Rain , Thunderstorm    
Averages and records for this station are not official NWS values.
T = Trace of Precipitation, MM = Missing Value Source: NWS Daily Summary

Daily Weather History Graph

Daily Weather History Graph

Search for Another Location

Airport or City:

Astronomy

Jul. 10, 2013 Rise Set
Actual Time 5:34 AM CDT 8:27 PM CDT
Civil Twilight 5:02 AM CDT 8:59 PM CDT
Nautical Twilight 4:20 AM CDT 9:40 PM CDT
Astronomical Twilight 3:33 AM CDT 10:27 PM CDT
Moon 7:56 AM CDT (7/10) 9:36 PM CDT (7/10)
Length of Visible Light 15h 57m
Length of Day
14h 52m
Waxing Crescent, 5% of the Moon is Illuminated
Jul 10
Waxing Crescent
Jul 15
First Quarter
Jul 22
Full
Jul 29
Last Quarter
Aug 6
New

Hourly Weather History & Observations

Time (CDT) Temp. Heat Index Dew Point Humidity Pressure Visibility Wind Dir Wind Speed Gust Speed Precip Events Conditions
12:56 AM 79.9 °F - 74.8 °F 85% 29.89 in 10.0 mi SSW 11.5 mph - N/A   Scattered Clouds
1:56 AM 79.0 °F - 73.9 °F 84% 29.88 in 10.0 mi SW 10.4 mph - N/A   Clear
2:56 AM 77.9 °F - 73.9 °F 88% 29.87 in 10.0 mi SW 9.2 mph - N/A   Clear
3:56 AM 77.9 °F - 73.9 °F 88% 29.86 in 10.0 mi SW 8.1 mph - N/A   Partly Cloudy
4:56 AM 75.9 °F - 72.9 °F 90% 29.85 in 10.0 mi SSW 8.1 mph - 0.00 in   Clear
5:56 AM 77.0 °F - 72.9 °F 87% 29.84 in 10.0 mi SW 8.1 mph - N/A   Partly Cloudy
6:56 AM 77.9 °F - 73.9 °F 88% 29.85 in 10.0 mi WSW 5.8 mph - N/A   Clear
7:56 AM 79.9 °F - 73.9 °F 82% 29.85 in 10.0 mi WSW 6.9 mph - N/A   Partly Cloudy
8:43 AM 80.6 °F 85.4 °F 73.4 °F 79% 29.88 in 10.0 mi WSW 8.1 mph - N/A Thunderstorm Scattered Clouds
8:56 AM 79.0 °F - 73.9 °F 84% 29.84 in 10.0 mi WSW 10.4 mph - N/A Thunderstorm Mostly Cloudy
9:09 AM 78.8 °F - 73.4 °F 83% 29.92 in 3.0 mi WSW 10.4 mph - 0.10 in Rain , Thunderstorm Light Thunderstorms and Rain
9:56 AM 73.9 °F - 72.0 °F 93% 29.91 in 2.0 mi SW 9.2 mph - 0.34 in Rain , Thunderstorm Heavy Thunderstorms and Rain
10:08 AM 73.4 °F - 71.6 °F 94% 29.96 in 0.5 mi SSW 16.1 mph 20.7 mph 0.12 in Fog , Rain , Thunderstorm Heavy Thunderstorms and Rain
10:14 AM 73.4 °F - 71.6 °F 94% 29.96 in 1.0 mi SW 17.3 mph 25.3 mph 0.16 in Rain , Thunderstorm Heavy Thunderstorms and Rain
10:23 AM 73.4 °F - 71.6 °F 94% 29.98 in 1.0 mi SW 19.6 mph 26.5 mph 0.34 in Rain , Thunderstorm Heavy Thunderstorms and Rain
10:56 AM 70.9 °F - 68.9 °F 93% 29.96 in 10.0 mi WSW 19.6 mph 24.2 mph 0.57 in Rain Light Rain
11:40 AM 71.6 °F - 71.6 °F 100% 30.01 in 4.0 mi WSW 15.0 mph - 0.00 in Rain Light Rain
11:56 AM 72.0 °F - 70.9 °F 96% 29.96 in 5.0 mi WSW 13.8 mph - 0.02 in Rain Light Rain
12:56 PM 79.0 °F - 73.9 °F 84% 29.93 in 10.0 mi West 11.5 mph - 0.01 in   Scattered Clouds
1:56 PM 82.9 °F 88.0 °F 72.0 °F 69% 29.90 in 10.0 mi West 8.1 mph - N/A   Clear
2:56 PM 84.9 °F 89.4 °F 70.0 °F 61% 29.89 in 10.0 mi NW 9.2 mph - N/A   Partly Cloudy
3:56 PM 86.9 °F 88.9 °F 65.8 °F 49% 29.87 in 10.0 mi NW 16.1 mph - N/A   Partly Cloudy
4:56 PM 86.0 °F 89.4 °F 68.0 °F 55% 29.88 in 10.0 mi NNW 16.1 mph - N/A   Scattered Clouds
5:56 PM 82.9 °F 85.0 °F 65.8 °F 56% 29.88 in 10.0 mi NNW 16.1 mph - N/A   Partly Cloudy
6:56 PM 81.9 °F 83.5 °F 64.9 °F 56% 29.90 in 10.0 mi NNW 19.6 mph - N/A   Partly Cloudy
7:56 PM 79.0 °F - 63.9 °F 60% 29.92 in 10.0 mi NNW 11.5 mph - N/A   Clear
8:56 PM 74.8 °F - 63.9 °F 69% 29.95 in 10.0 mi North 10.4 mph - N/A   Clear
9:56 PM 72.9 °F - 63.9 °F 73% 29.98 in 10.0 mi North 6.9 mph - N/A   Mostly Cloudy
10:56 PM 70.0 °F - 63.9 °F 81% 30.00 in 10.0 mi NE 8.1 mph - N/A   Mostly Cloudy
11:56 PM 68.0 °F - 63.9 °F 87% 30.01 in 10.0 mi East 5.8 mph - N/A   Scattered Clouds